Latest Weather Observations for Fort Denison

IDN60801

Issued at 7:05 am EDT Saturday 7 March 2015 (issued every 30 minutes, with the page automatically refreshed every 10 minutes)

About weather observations | Map of weather stations | Latest weather observations for NSW | Other Formats
Station Details ID: 066022 Name: FORT DENISON Lat: -33.86 Lon: 151.23 Height: 5.0 m
Data from the previous 72 hours. | See also: Recent months for locations in New South Wales
Date/Time
EDT
Temp
°C
App
Temp
°C
Dew
Point
Rel
Hum
%
Delta-T
°C
Wind Press
QNH
hPa
Press
MSL
hPa
Rain
since 9 am
mm
Dir
 
Spd
km/h
Gust
km/h
Spd
kts
Gust
kts
07/07:00am - - - - - SSE 13 15 7 8 - - -
07/06:30am - - - - - S 11 15 6 8 - - -
07/06:00am - - - - - SE 11 15 6 8 - - -
07/05:30am - - - - - ESE 24 30 13 16 - - -
07/05:00am - - - - - ENE 7 13 4 7 - - -
07/04:30am - - - - - E 4 9 2 5 - - -
07/04:00am - - - - - SE 11 17 6 9 - - -
07/03:30am - - - - - SE 15 24 8 13 - - -
07/03:00am - - - - - SE 7 13 4 7 - - -
07/02:30am - - - - - SE 7 11 4 6 - - -
07/02:00am - - - - - ESE 13 19 7 10 - - -
07/01:30am - - - - - ESE 15 19 8 10 - - -
07/01:00am - - - - - SE 13 19 7 10 - - -
07/12:30am - - - - - ESE 6 9 3 5 - - -
07/12:00am - - - - - ESE 6 7 3 4 - - -
 
Date/Time
EDT
Temp
°C
App
Temp
°C
Dew
Point
Rel
Hum
%
Delta-T
°C
Wind Press
QNH
hPa
Press
MSL
hPa
Rain
since 9 am
mm
Dir
 
Spd
km/h
Gust
km/h
Spd
kts
Gust
kts
06/11:30pm - - - - - ESE 9 13 5 7 - - -
06/11:00pm - - - - - ESE 11 11 6 6 - - -
06/10:30pm - - - - - ESE 15 19 8 10 - - -
06/10:00pm - - - - - ESE 9 13 5 7 - - -
06/09:30pm - - - - - SE 7 11 4 6 - - -
06/09:00pm - - - - - SE 2 4 1 2 - - -
06/08:30pm - - - - - E 6 6 3 3 - - -
06/08:00pm - - - - - ENE 7 11 4 6 - - -
06/07:30pm - - - - - E 9 13 5 7 - - -
06/07:00pm - - - - - E 11 15 6 8 - - -
06/06:30pm - - - - - E 15 19 8 10 - - -
06/06:00pm - - - - - E 13 17 7 9 - - -
06/05:30pm - - - - - E 17 20 9 11 - - -
06/05:00pm - - - - - SE 20 32 11 17 - - -
06/04:30pm - - - - - WSW 13 24 7 13 - - -
06/04:00pm - - - - - W 19 28 10 15 - - -
06/03:30pm - - - - - W 19 35 10 19 - - -
06/03:00pm - - - - - W 20 39 11 21 - - -
06/02:30pm - - - - - W 22 35 12 19 - - -
06/02:00pm - - - - - WSW 26 39 14 21 - - -
06/01:30pm - - - - - W 22 39 12 21 - - -
06/01:00pm - - - - - W 30 39 16 21 - - -
06/12:30pm - - - - - W 24 35 13 19 - - -
06/12:00pm - - - - - W 28 43 15 23 - - -
06/11:30am - - - - - WNW 24 33 13 18 - - -
06/11:00am - - - - - W 24 35 13 19 - - -
06/10:30am - - - - - W 24 33 13 18 - - -
06/10:00am - - - - - W 26 37 14 20 - - -
06/09:30am - - - - - WNW 17 30 9 16 - - -
06/09:00am - - - - - WNW 15 22 8 12 - - -
06/08:30am - - - - - NW 19 28 10 15 - - -
06/08:00am - - - - - NW 13 19 7 10 - - -
06/07:30am - - - - - WNW 15 22 8 12 - - -
06/07:00am - - - - - WNW 17 22 9 12 - - -
06/06:30am - - - - - WNW 17 22 9 12 - - -
06/06:00am - - - - - WNW 13 19 7 10 - - -
06/05:30am - - - - - NNW 15 19 8 10 - - -
06/05:00am - - - - - NNW 13 17 7 9 - - -
06/04:30am - - - - - NW 11 13 6 7 - - -
06/04:00am - - - - - WNW 15 20 8 11 - - -
06/03:30am - - - - - WNW 15 19 8 10 - - -
06/03:00am - - - - - WNW 15 17 8 9 - - -
06/02:30am - - - - - WNW 11 15 6 8 - - -
06/02:00am - - - - - W 17 19 9 10 - - -
06/01:30am - - - - - WNW 13 19 7 10 - - -
06/01:00am - - - - - W 17 20 9 11 - - -
06/12:30am - - - - - W 13 15 7 8 - - -
06/12:00am - - - - - SSW 6 7 3 4 - - -
 
Date/Time
EDT
Temp
°C
App
Temp
°C
Dew
Point
Rel
Hum
%
Delta-T
°C
Wind Press
QNH
hPa
Press
MSL
hPa
Rain
since 9 am
mm
Dir
 
Spd
km/h
Gust
km/h
Spd
kts
Gust
kts
05/11:30pm - - - - - SSW 4 7 2 4 - - -
05/11:00pm - - - - - SSE 6 9 3 5 - - -
05/10:30pm - - - - - SSE 13 19 7 10 - - -
05/10:00pm - - - - - SSE 15 20 8 11 - - -
05/09:30pm - - - - - SSE 15 22 8 12 - - -
05/09:00pm - - - - - SSE 19 26 10 14 - - -
05/08:30pm - - - - - SSE 15 24 8 13 - - -
05/08:00pm - - - - - SSE 20 33 11 18 - - -
05/07:30pm - - - - - SSE 22 33 12 18 - - -
05/07:00pm - - - - - SSE 24 37 13 20 - - -
05/06:30pm - - - - - SSE 28 41 15 22 - - -
05/06:00pm - - - - - SSE 22 35 12 19 - - -
05/05:30pm - - - - - SSE 28 41 15 22 - - -
05/05:00pm - - - - - SSE 33 54 18 29 - - -
05/04:45pm - - - - - SSE 33 52 18 28 - - -
05/04:30pm - - - - - SSE 37 50 20 27 - - -
05/04:00pm - - - - - SSE 35 46 19 25 - - -
05/03:30pm - - - - - SSE 28 43 15 23 - - -
05/03:26pm - - - - - SSE 30 48 16 26 - - -
05/03:00pm - - - - - SSE 35 50 19 27 - - -
05/02:36pm - - - - - SSE 32 50 17 27 - - -
05/02:30pm - - - - - SSE 32 44 17 24 - - -
05/02:09pm - - - - - SSE 35 54 19 29 - - -
05/02:00pm - - - - - SSE 41 50 22 27 - - -
05/01:42pm - - - - - SSE 35 54 19 29 - - -
05/01:30pm - - - - - SSE 43 59 23 32 - - -
05/01:22pm - - - - - SSW 24 46 13 25 - - -
05/01:00pm - - - - - SW 20 37 11 20 - - -
05/12:36pm - - - - - WSW 28 50 15 27 - - -
05/12:30pm - - - - - WSW 24 43 13 23 - - -
05/12:00pm - - - - - WSW 30 46 16 25 - - -
05/11:47am - - - - - WSW 28 48 15 26 - - -
05/11:30am - - - - - SW 24 37 13 20 - - -
05/11:00am - - - - - WSW 19 35 10 19 - - -
05/10:30am - - - - - WSW 19 32 10 17 - - -
05/10:00am - - - - - SW 11 20 6 11 - - -
05/09:30am - - - - - SW 19 30 10 16 - - -
05/09:00am - - - - - SW 15 37 8 20 - - -
05/08:30am - - - - - WSW 17 24 9 13 - - -
05/08:00am - - - - - SSW 15 22 8 12 - - -
05/07:30am - - - - - W 15 19 8 10 - - -
05/07:00am - - - - - W 11 17 6 9 - - -
05/06:30am - - - - - W 15 19 8 10 - - -
05/06:00am - - - - - W 17 20 9 11 - - -
05/05:30am - - - - - W 19 20 10 11 - - -
05/05:00am - - - - - W 19 22 10 12 - - -
05/04:30am - - - - - W 13 17 7 9 - - -
05/04:00am - - - - - W 15 19 8 10 - - -
05/03:30am - - - - - W 17 19 9 10 - - -
05/03:00am - - - - - W 11 13 6 7 - - -
05/02:30am - - - - - WNW 13 13 7 7 - - -
05/02:00am - - - - - WNW 9 9 5 5 - - -
05/01:30am - - - - - WNW 6 7 3 4 - - -
05/01:00am - - - - - W 6 7 3 4 - - -
05/12:30am - - - - - WNW 4 6 2 3 - - -
05/12:00am - - - - - W 9 11 5 6 - - -
 
Date/Time
EDT
Temp
°C
App
Temp
°C
Dew
Point
Rel
Hum
%
Delta-T
°C
Wind Press
QNH
hPa
Press
MSL
hPa
Rain
since 9 am
mm
Dir
 
Spd
km/h
Gust
km/h
Spd
kts
Gust
kts
04/11:30pm - - - - - WSW 2 2 1 1 - - -
04/11:00pm - - - - - E 4 4 2 2 - - -
04/10:30pm - - - - - ENE 4 6 2 3 - - -
04/10:00pm - - - - - E 2 4 1 2 - - -
04/09:30pm - - - - - NNE 2 6 1 3 - - -
04/09:00pm - - - - - ENE 9 15 5 8 - - -
04/08:30pm - - - - - E 11 13 6 7 - - -
04/08:00pm - - - - - ENE 9 11 5 6 - - -
04/07:30pm - - - - - ENE 9 13 5 7 - - -
04/07:00pm - - - - - ENE 15 19 8 10 - - -
04/06:30pm - - - - - E 17 20 9 11 - - -
04/06:00pm - - - - - ENE 17 20 9 11 - - -
04/05:30pm - - - - - ENE 17 20 9 11 - - -
04/05:00pm - - - - - ESE 17 19 9 10 - - -
04/04:30pm - - - - - ESE 15 19 8 10 - - -
04/04:00pm - - - - - E 15 19 8 10 - - -
04/03:30pm - - - - - ESE 17 22 9 12 - - -
04/03:00pm - - - - - E 13 19 7 10 - - -
04/02:30pm - - - - - E 15 19 8 10 - - -
04/02:00pm - - - - - ESE 11 17 6 9 - - -
04/01:30pm - - - - - ESE 9 11 5 6 - - -
04/01:00pm - - - - - E 13 17 7 9 - - -
04/12:30pm - - - - - ESE 7 11 4 6 - - -
04/12:00pm - - - - - S 6 9 3 5 - - -
04/11:30am - - - - - SSW 11 15 6 8 - - -
04/11:00am - - - - - S 13 20 7 11 - - -
04/10:30am - - - - - S 13 19 7 10 - - -
04/10:00am - - - - - S 9 17 5 9 - - -
04/09:30am - - - - - SSW 9 15 5 8 - - -
04/09:00am - - - - - S 7 11 4 6 - - -
04/08:30am - - - - - SSW 6 9 3 5 - - -
04/08:00am - - - - - SSW 9 13 5 7 - - -
04/07:30am - - - - - SSW 9 15 5 8 - - -

Other Formats:

Comma delimited format used in spreadsheet applications
http://www.bom.gov.au/fwo/IDN60801/IDN60801.94769.axf

JavaScript Object Notation format (JSON) in row-major order
http://www.bom.gov.au/fwo/IDN60801/IDN60801.94769.json